Regional Weather Roundup
Issued by NWS Newport/Morehead, NC

Current Version | Previous Version | Text Only | Print | Product List | Glossary On
Versions: 1 2 3 4 5 6 7 8 9 10 11 12 13 14 15 16 17 18 19 20 21 22 23 24 25 26 27 28 29 30 31 32 33 34 35 36 37 38 39 40 41 42 43 44 45 46 47 48 49 50
000
ASUS42 KMHX 131722
RWRMHX
WEATHER ROUNDUP FOR EASTERN NORTH CAROLINA
NATIONAL WEATHER SERVICE NEWPORT/MOREHEAD CITY NC
100 PM EDT SUN JUL 13 2014

NOTE: "FAIR" INDICATES FEW OR NO CLOUDS BELOW 12,000 FEET
WITH NO SIGNIFICANT WEATHER AND/OR OBSTRUCTIONS TO VISIBILITY

NCZ015>017-031-032-045>047-102-103-131800-
NORTH COAST

CITY           SKY/WX    TMP DP  RH WIND       PRES   REMARKS
EDENTON        PTSUNNY   85  72  66 S6        30.11F
ELIZABETH CITY PTSUNNY   85  74  69 S8        30.11F
KITTY HAWK     MOSUNNY   84  72  67 S5        30.12F
MANTEO         NOT AVBL

$$

NCZ045>047-081-094-103-104-131800-
CENTRAL COAST

CITY           SKY/WX    TMP DP  RH WIND       PRES   REMARKS
FRISCO         SUNNY     86  71  60 S8        30.15F
SWANQUARTER      N/A     86 N/A N/A S8        30.09F

$$

NCZ095-097-098-100-101-131800-
SOUTHERN COAST

CITY           SKY/WX    TMP DP  RH WIND       PRES   REMARKS
BEAUFORT       MOSUNNY   84  72  67 S9        30.14F
CEDAR ISLAND     N/A     84 N/A N/A SE12      30.18S
JACKSONVILLE   MOSUNNY   87  70  56 VRB6      30.12F
NEWPORT        NOT AVBL
PINEY ISLAND   PTSUNNY   84  76  76 E7        30.13F
WILMINGTON     PTSUNNY   86  74  67 S8        30.14F


$$

NCZ011>013-027>030-043-044-078>080-089-090>093-098-131800-
COASTAL PLAIN

CITY           SKY/WX    TMP DP  RH WIND       PRES   REMARKS
AHOSKIE        SUNNY     86  72  62 S6        30.11F
CLINTON        MOSUNNY   88  73  62 S3        30.12F
ELIZABETHTOWN  MOSUNNY   86  69  56 SE6       30.13F
GOLDSBORO      MOSUNNY   87  74  66 S5        30.10F
GREENVILLE     MOSUNNY   86  72  62 SW6       30.13F
HAVELOCK       PTSUNNY   86  70  58 VRB6      30.14F
KENANSVILLE    MOSUNNY   85  69  59 S3        30.13F
KINSTON        MOSUNNY   88  70  55 SW5       30.13F
NEW BERN       MOSUNNY   88  72  58 SW3       30.14F
RICHLANDS      PTSUNNY   88  72  58 S8        30.12F
ROANOKE RAPIDS NOT AVBL
ROCKY MOUNT    SUNNY     87  71  58 VRB7      30.11F
WASHINGTON     PTSUNNY   84  72  66 SW6       30.12F
WHITEVILLE     MOSUNNY   86  71  60 S8        30.13F

$$

AMZ130-135-150-152-154-156-158-170-250-252-270-ANZ085-086-088-633-658-670-131800-
MARINE OBSERVATIONS

STATION/POSITION TIME  TEMP    WIND        PRES    WAVE   SWELL
                       AIR SEA DIR/SP/G            HT/PER HT/PER
                 (UTC) (F)     (DEG/KT/KT) (MB)    (FT/S) (FT/S)
CHESAPEAKE LIGHT NOT AVBL
BUOY 44014       1700   76 78  150/  8/ 10 1020.0    2/ 7   2/ 7
DUCK             1700   78 72  130/ 10/ 11 1019.4
2E DUCK          1700                        N/A     1/ 8
OREGON INLET     1700   79 79  110/  9/ 12 1020.3
BUOY 44095       1700      77                N/A     2/ 7
HATTERAS CG      1700   82 81  150/  5/  7 1021.4
DIAMOND BUOY     1700           CALM  /  2 1021.1    2/ 6   2/ 6
17S OCRACOKE INL NOT AVBL
CAPE LOOKOUT     1700   81     140/  5/  7 1020.8
BEAUFORT LAB     1700   81 82  180/  7/  9 1020.3
30 SE NEW RIVER  1700   80 85  170/  2/  2 1021.4    2/ 7   2/ 7
5 SE WRIGHTSVILL 1700   78 83  160/ 10/ 12 1021.5
FRYING PAN BUOY  NOT AVBL
BUOY 41001       NOT AVBL
BUOY 41002       1610   81 84   CALM  /  2 1022.2    2/ 8   2/ 8
BUOY 41004       1700   78 82  230/  8/ 10 1021.3    2/ 8   2/ 8

$$



USA.gov is the U.S. government's official web portal to all federal, state and local government web resources and services.